Regional Weather Roundup
Issued by NWS

Home | Current Version | Previous Version | Graphics & Text | Print | Product List | Glossary On
Versions: 1 2 3 4 5 6 7 8 9 10 11 12 13 14 15 16 17 18 19 20 21 22 23 24 25 26 27 28 29 30 31 32 33 34 35 36 37 38 39 40 41 42 43 44 45 46 47 48 49 50
000
ASUS43 KLMK 232010
RWRKY
KENTUCKY REGIONAL WEATHER ROUNDUP
NATIONAL WEATHER SERVICE LOUISVILLE KY
300 PM EST THU FEB 23 2017

NOTE "FAIR" INDICATES FEW OR NO CLOUDS BELOW 12,000 FEET
WITH NO SIGNIFICANT WEATHER AND/OR OBSTRUCTIONS TO VISIBILITY.

KYZ001>023-026-027-061>063-070>075-232100-
WESTERN AND SOUTH CENTRAL KENTUCKY

CITY           SKY/WX    TMP DP  RH WIND       PRES   REMARKS
PADUCAH        PTSUNNY   72  53  51 S14       29.69F
HENDERSON      CLOUDY    70  55  60 S14       29.71S
OWENSBORO      CLOUDY    70  58  65 S12       29.73S
HOPKINSVILLE   PTSUNNY   71  56  58 S9G22     29.74F
BOWLING GREEN  CLOUDY    72  56  57 SW12      29.77F
GLASGOW        CLOUDY    71  56  58 SW10      29.77F
$$

KYZ024-025-028>034-038-045-046-053-232100-
NORTH CENTRAL KENTUCKY

CITY           SKY/WX    TMP DP  RH WIND       PRES   REMARKS
LOUISVILLE/SDF PTSUNNY   71  55  56 S9        29.75F
LOUISVILLE/LOU CLOUDY    70  57  63 S8        29.76F
FORT KNOX      CLOUDY    69  57  65 S12       29.74F
$$

KYZ035>037-039>044-047>052-055>060-089>105-232100-
NORTHEAST KENTUCKY

CITY           SKY/WX    TMP DP  RH WIND       PRES   REMARKS
LEXINGTON      CLOUDY    67  56  67 S8        29.80F
COVINGTON      CLOUDY    68  56  65 S13       29.76S
FRANKFORT      CLOUDY    70  56  61 S9        29.77F
$$

KYZ054-064>069-076>088-106>120-232100-
SOUTHEAST KENTUCKY

CITY           SKY/WX    TMP DP  RH WIND       PRES   REMARKS
JACKSON        CLOUDY    66  54  65 VRB3      29.84S
LONDON         CLOUDY    68  52  56 S6        29.82F
SOMERSET       CLOUDY    68  54  60 CALM      29.81F
MIDDLESBORO    SUNNY     71  54  56 S5        29.83F
MONTICELLO     MOCLDY    73  57  57 VRB5G17   29.81F
$$




USA.gov is the U.S. government's official web portal to all federal, state and local government web resources and services.